Time,TemperatureF,DewpointF,PressureIn,WindDirection,WindDirectionDegrees,WindSpeedMPH,WindSpeedGustMPH,Humidity,HourlyPrecipIn,Conditions,Clouds,dailyrainin,SoftwareType,DateUTC
2013-04-04 00:01:00,49.0,45.0,29.92,NNW,342,0.0,-999.0,85,-99.99,,,-99.99,,2013-04-04 07:01:00,
2013-04-04 00:12:00,49.0,45.0,29.92,NNW,342,0.0,-999.0,85,-99.99,,,-99.99,,2013-04-04 07:12:00,
2013-04-04 00:21:00,49.0,45.0,29.91,NNW,342,0.0,-999.0,85,-99.99,,,-99.99,,2013-04-04 07:21:00,
2013-04-04 00:32:00,49.0,44.0,29.91,NNW,336,1.0,-999.0,84,-99.99,,,-99.99,,2013-04-04 07:32:00,
2013-04-04 00:42:00,49.0,44.0,29.91,NNW,336,1.0,-999.0,84,-99.99,,,-99.99,,2013-04-04 07:42:00,
2013-04-04 00:52:00,49.0,44.0,29.90,North,360,0.0,-999.0,84,-99.99,,,-99.99,,2013-04-04 07:52:00,
2013-04-04 01:02:00,49.0,44.0,29.90,North,8,1.0,-999.0,83,-99.99,,,-99.99,,2013-04-04 08:02:00,
2013-04-04 01:12:00,49.0,44.0,29.90,North,8,1.0,-999.0,83,-99.99,,,-99.99,,2013-04-04 08:12:00,
2013-04-04 01:22:00,50.0,45.0,29.89,NNE,26,1.0,-999.0,83,-99.99,,,-99.99,,2013-04-04 08:22:00,
2013-04-04 01:32:00,50.0,45.0,29.89,North,7,1.0,-999.0,82,-99.99,,,-99.99,,2013-04-04 08:32:00,
2013-04-04 01:42:00,50.0,45.0,29.89,North,7,1.0,-999.0,82,-99.99,,,-99.99,,2013-04-04 08:42:00,
2013-04-04 01:52:00,50.0,45.0,29.88,North,8,0.0,-999.0,82,-99.99,,,-99.99,,2013-04-04 08:52:00,
2013-04-04 02:02:00,49.0,44.0,29.88,North,8,0.0,-999.0,83,-99.99,,,-99.99,,2013-04-04 09:02:00,
2013-04-04 02:12:00,49.0,44.0,29.88,North,8,0.0,-999.0,83,-99.99,,,-99.99,,2013-04-04 09:12:00,
2013-04-04 02:22:00,49.0,44.0,29.88,NNW,333,0.0,-999.0,83,-99.99,,,-99.99,,2013-04-04 09:22:00,
2013-04-04 02:33:00,49.0,44.0,29.87,North,8,1.0,-999.0,83,-99.99,,,-99.99,,2013-04-04 09:33:00,
2013-04-04 02:42:00,49.0,44.0,29.87,North,8,1.0,-999.0,83,-99.99,,,-99.99,,2013-04-04 09:42:00,
2013-04-04 02:52:00,49.0,44.0,29.87,North,7,1.0,-999.0,83,-99.99,,,-99.99,,2013-04-04 09:52:00,
2013-04-04 03:03:00,49.0,44.0,29.86,North,353,1.0,-999.0,84,-99.99,,,-99.99,,2013-04-04 10:03:00,
2013-04-04 03:12:00,49.0,44.0,29.86,North,353,1.0,-999.0,84,-99.99,,,-99.99,,2013-04-04 10:12:00,
2013-04-04 03:23:00,49.0,44.0,29.85,NNW,333,1.0,-999.0,84,-99.99,,,-99.99,,2013-04-04 10:23:00,
2013-04-04 03:32:00,48.0,44.0,29.85,NNW,333,0.0,-999.0,85,-99.99,,,-99.99,,2013-04-04 10:32:00,
2013-04-04 03:42:00,48.0,44.0,29.85,NNW,333,0.0,-999.0,85,-99.99,,,-99.99,,2013-04-04 10:42:00,
2013-04-04 03:53:00,48.0,44.0,29.84,NNW,347,0.0,-999.0,85,-99.99,,,-99.99,,2013-04-04 10:53:00,
2013-04-04 04:02:00,48.0,44.0,29.84,NNW,346,0.0,-999.0,85,-99.99,,,-99.99,,2013-04-04 11:02:00,
2013-04-04 04:12:00,48.0,44.0,29.84,NNW,346,0.0,-999.0,85,-99.99,,,-99.99,,2013-04-04 11:12:00,
2013-04-04 04:21:00,48.0,44.0,29.83,North,6,0.0,-999.0,85,-99.99,,,-99.99,,2013-04-04 11:21:00,
2013-04-04 04:32:00,48.0,44.0,29.83,North,6,0.0,-999.0,85,-99.99,,,-99.99,,2013-04-04 11:32:00,
2013-04-04 04:42:00,48.0,44.0,29.83,North,6,0.0,-999.0,85,-99.99,,,-99.99,,2013-04-04 11:42:00,
2013-04-04 04:52:00,48.0,44.0,29.83,NNW,346,0.0,-999.0,85,-99.99,,,-99.99,,2013-04-04 11:52:00,
2013-04-04 05:02:00,48.0,44.0,29.82,NNW,346,0.0,-999.0,86,-99.99,,,-99.99,,2013-04-04 12:02:00,
2013-04-04 05:12:00,48.0,44.0,29.82,NNW,346,0.0,-999.0,86,-99.99,,,-99.99,,2013-04-04 12:12:00,
2013-04-04 05:22:00,48.0,44.0,29.81,NNW,346,0.0,-999.0,85,-99.99,,,-99.99,,2013-04-04 12:22:00,
2013-04-04 05:32:00,48.0,44.0,29.80,NNW,346,0.0,-999.0,85,-99.99,,,-99.99,,2013-04-04 12:32:00,
2013-04-04 05:42:00,48.0,44.0,29.80,NNW,346,0.0,-999.0,85,-99.99,,,-99.99,,2013-04-04 12:42:00,
2013-04-04 05:52:00,49.0,45.0,29.78,North,3,1.0,-999.0,85,-99.99,,,-99.99,,2013-04-04 12:52:00,
2013-04-04 06:02:00,49.0,45.0,29.79,SE,135,1.0,-999.0,85,-99.99,,,-99.99,,2013-04-04 13:02:00,
2013-04-04 06:12:00,49.0,45.0,29.79,SE,135,1.0,-999.0,85,-99.99,,,-99.99,,2013-04-04 13:12:00,
2013-04-04 06:22:00,48.0,44.0,29.78,SE,135,0.0,-999.0,87,-99.99,,,-99.99,,2013-04-04 13:22:00,
2013-04-04 06:32:00,48.0,44.0,29.77,SE,135,0.0,-999.0,87,-99.99,,,-99.99,,2013-04-04 13:32:00,
2013-04-04 06:42:00,48.0,44.0,29.77,SE,135,0.0,-999.0,87,-99.99,,,-99.99,,2013-04-04 13:42:00,
2013-04-04 06:52:00,48.0,44.0,29.77,SE,135,0.0,-999.0,87,-99.99,,,-99.99,,2013-04-04 13:52:00,
2013-04-04 07:02:00,48.0,44.0,29.76,SE,134,0.0,-999.0,87,-99.99,,,-99.99,,2013-04-04 14:02:00,
2013-04-04 07:12:00,48.0,44.0,29.76,SE,134,0.0,-999.0,87,-99.99,,,-99.99,,2013-04-04 14:12:00,
2013-04-04 07:22:00,48.0,44.0,29.76,SE,134,0.0,-999.0,87,-99.99,,,-99.99,,2013-04-04 14:22:00,
2013-04-04 07:32:00,48.0,44.0,29.75,SE,130,0.0,-999.0,87,-99.99,,,-99.99,,2013-04-04 14:32:00,
2013-04-04 07:42:00,48.0,44.0,29.75,SE,130,0.0,-999.0,87,-99.99,,,-99.99,,2013-04-04 14:42:00,
2013-04-04 07:52:00,48.0,45.0,29.75,East,100,0.0,-999.0,88,-99.99,,,-99.99,,2013-04-04 14:52:00,
2013-04-04 08:02:00,48.0,45.0,29.74,North,349,1.0,-999.0,90,-99.99,,,-99.99,,2013-04-04 15:02:00,
2013-04-04 08:12:00,48.0,45.0,29.74,North,349,1.0,-999.0,90,-99.99,,,-99.99,,2013-04-04 15:12:00,
2013-04-04 08:22:00,48.0,45.0,29.73,North,359,1.0,-999.0,91,-99.99,,,-99.99,,2013-04-04 15:22:00,
2013-04-04 08:33:00,48.0,45.0,29.73,North,356,2.0,-999.0,91,-99.99,,,-99.99,,2013-04-04 15:33:00,
2013-04-04 08:42:00,48.0,45.0,29.73,North,356,2.0,-999.0,91,-99.99,,,-99.99,,2013-04-04 15:42:00,
2013-04-04 08:53:00,48.0,45.0,29.72,NNE,18,2.0,-999.0,91,-99.99,,,-99.99,,2013-04-04 15:53:00,
2013-04-04 09:02:00,48.0,47.0,29.71,NNW,340,2.0,-999.0,96,-99.99,,,-99.99,,2013-04-04 16:02:00,
2013-04-04 09:12:00,48.0,47.0,29.71,NNW,340,2.0,-999.0,96,-99.99,,,-99.99,,2013-04-04 16:12:00,
2013-04-04 09:23:00,48.0,46.0,29.70,NNW,342,1.0,-999.0,93,-99.99,,,-99.99,,2013-04-04 16:23:00,
2013-04-04 09:32:00,48.0,46.0,29.70,NW,325,1.0,-999.0,93,-99.99,,,-99.99,,2013-04-04 16:32:00,
2013-04-04 09:42:00,48.0,46.0,29.70,NW,325,1.0,-999.0,93,-99.99,,,-99.99,,2013-04-04 16:42:00,
2013-04-04 09:52:00,48.0,46.0,29.70,NNE,16,2.0,-999.0,92,-99.99,,,-99.99,,2013-04-04 16:52:00,
2013-04-04 10:02:00,49.0,47.0,29.70,NNE,16,0.0,-999.0,93,-99.99,,,-99.99,,2013-04-04 17:02:00,
2013-04-04 10:12:00,49.0,47.0,29.70,NNE,16,0.0,-999.0,93,-99.99,,,-99.99,,2013-04-04 17:12:00,
2013-04-04 10:22:00,49.0,47.0,29.70,NNE,16,0.0,-999.0,93,-99.99,,,-99.99,,2013-04-04 17:22:00,
2013-04-04 10:32:00,48.0,47.0,29.69,NNE,16,1.0,-999.0,95,-99.99,,,-99.99,,2013-04-04 17:32:00,
2013-04-04 10:42:00,48.0,47.0,29.69,NNE,16,1.0,-999.0,95,-99.99,,,-99.99,,2013-04-04 17:42:00,
2013-04-04 10:52:00,48.0,47.0,29.69,NNE,13,2.0,-999.0,95,-99.99,,,-99.99,,2013-04-04 17:52:00,
2013-04-04 11:02:00,48.0,47.0,29.69,North,358,3.0,-999.0,95,-99.99,,,-99.99,,2013-04-04 18:02:00,
2013-04-04 11:12:00,48.0,47.0,29.69,North,358,3.0,-999.0,95,-99.99,,,-99.99,,2013-04-04 18:12:00,
2013-04-04 11:22:00,49.0,48.0,29.68,NNE,19,2.0,-999.0,95,-99.99,,,-99.99,,2013-04-04 18:22:00,
2013-04-04 11:32:00,49.0,48.0,29.68,NNE,16,2.0,-999.0,96,-99.99,,,-99.99,,2013-04-04 18:32:00,
2013-04-04 11:42:00,49.0,48.0,29.68,NNE,16,2.0,-999.0,96,-99.99,,,-99.99,,2013-04-04 18:42:00,
2013-04-04 11:52:00,49.0,48.0,29.67,NNW,331,2.0,-999.0,96,-99.99,,,-99.99,,2013-04-04 18:52:00,
2013-04-04 12:02:00,49.0,48.0,29.67,North,352,3.0,-999.0,96,-99.99,,,-99.99,,2013-04-04 19:02:00,
2013-04-04 12:12:00,49.0,48.0,29.67,North,352,3.0,-999.0,96,-99.99,,,-99.99,,2013-04-04 19:12:00,
2013-04-04 12:21:00,49.0,48.0,29.66,North,357,2.0,-999.0,96,-99.99,,,-99.99,,2013-04-04 19:21:00,
2013-04-04 12:32:00,50.0,49.0,29.66,North,357,0.0,-999.0,97,-99.99,,,-99.99,,2013-04-04 19:32:00,
2013-04-04 12:42:00,50.0,49.0,29.66,North,357,0.0,-999.0,97,-99.99,,,-99.99,,2013-04-04 19:42:00,
2013-04-04 12:52:00,50.0,49.0,29.65,NNE,19,1.0,-999.0,96,-99.99,,,-99.99,,2013-04-04 19:52:00,
2013-04-04 13:03:00,50.0,49.0,29.65,NNE,13,1.0,-999.0,97,-99.99,,,-99.99,,2013-04-04 20:03:00,
2013-04-04 13:12:00,50.0,49.0,29.65,NNE,13,1.0,-999.0,97,-99.99,,,-99.99,,2013-04-04 20:12:00,
2013-04-04 13:22:00,50.0,49.0,29.64,NNE,13,0.0,-999.0,97,-99.99,,,-99.99,,2013-04-04 20:22:00,
2013-04-04 13:32:00,50.0,49.0,29.64,NNE,13,0.0,-999.0,97,-99.99,,,-99.99,,2013-04-04 20:32:00,
2013-04-04 13:42:00,50.0,49.0,29.64,NNE,13,0.0,-999.0,97,-99.99,,,-99.99,,2013-04-04 20:42:00,
2013-04-04 13:52:00,51.0,50.0,29.64,NNE,13,0.0,-999.0,97,-99.99,,,-99.99,,2013-04-04 20:52:00,
2013-04-04 14:02:00,51.0,50.0,29.64,NNE,13,0.0,-999.0,97,-99.99,,,-99.99,,2013-04-04 21:02:00,
2013-04-04 14:11:00,51.0,50.0,29.64,NNE,13,0.0,-999.0,97,-99.99,,,-99.99,,2013-04-04 21:11:00,
2013-04-04 14:22:00,51.0,50.0,29.64,NNE,13,0.0,-999.0,97,-99.99,,,-99.99,,2013-04-04 21:22:00,
2013-04-04 14:33:00,51.0,50.0,29.63,ESE,103,1.0,-999.0,97,-99.99,,,-99.99,,2013-04-04 21:33:00,
2013-04-04 14:43:00,51.0,50.0,29.63,ESE,103,1.0,-999.0,97,-99.99,,,-99.99,,2013-04-04 21:43:00,
2013-04-04 14:53:00,51.0,50.0,29.63,SSE,148,0.0,-999.0,97,-99.99,,,-99.99,,2013-04-04 21:53:00,
2013-04-04 15:03:00,51.0,50.0,29.63,South,188,2.0,-999.0,97,-99.99,,,-99.99,,2013-04-04 22:03:00,
2013-04-04 15:12:00,51.0,50.0,29.63,South,188,2.0,-999.0,97,-99.99,,,-99.99,,2013-04-04 22:12:00,
2013-04-04 15:22:00,51.0,50.0,29.63,SSE,162,1.0,-999.0,97,-99.99,,,-99.99,,2013-04-04 22:22:00,
2013-04-04 15:32:00,51.0,50.0,29.62,SSE,159,0.0,-999.0,97,-99.99,,,-99.99,,2013-04-04 22:32:00,
2013-04-04 15:42:00,51.0,50.0,29.62,SSE,159,0.0,-999.0,97,-99.99,,,-99.99,,2013-04-04 22:42:00,
2013-04-04 15:53:00,51.0,50.0,29.62,SSE,157,0.0,-999.0,97,-99.99,,,-99.99,,2013-04-04 22:53:00,
2013-04-04 16:02:00,51.0,50.0,29.61,South,169,1.0,-999.0,97,-99.99,,,-99.99,,2013-04-04 23:02:00,
2013-04-04 16:12:00,51.0,50.0,29.61,South,169,1.0,-999.0,97,-99.99,,,-99.99,,2013-04-04 23:12:00,
2013-04-04 16:22:00,51.0,50.0,29.61,SSE,168,1.0,-999.0,97,-99.99,,,-99.99,,2013-04-04 23:22:00,
2013-04-04 16:31:00,51.0,50.0,29.60,SSE,160,1.0,-999.0,97,-99.99,,,-99.99,,2013-04-04 23:31:00,
2013-04-04 16:42:00,51.0,50.0,29.60,SSE,160,1.0,-999.0,97,-99.99,,,-99.99,,2013-04-04 23:42:00,
2013-04-04 16:52:00,51.0,50.0,29.60,SSE,150,0.0,-999.0,97,-99.99,,,-99.99,,2013-04-04 23:52:00,
2013-04-04 17:02:00,51.0,50.0,29.60,SSE,166,2.0,-999.0,97,-99.99,,,-99.99,,2013-04-05 00:02:00,
2013-04-04 17:11:00,51.0,50.0,29.60,SSE,166,2.0,-999.0,97,-99.99,,,-99.99,,2013-04-05 00:11:00,
2013-04-04 17:22:00,50.0,49.0,29.60,SSW,202,2.0,-999.0,97,-99.99,,,-99.99,,2013-04-05 00:22:00,
2013-04-04 17:32:00,50.0,49.0,29.59,South,171,3.0,-999.0,97,-99.99,,,-99.99,,2013-04-05 00:32:00,
2013-04-04 17:42:00,50.0,49.0,29.59,South,171,3.0,-999.0,97,-99.99,,,-99.99,,2013-04-05 00:42:00,
2013-04-04 17:52:00,50.0,49.0,29.59,South,182,3.0,-999.0,98,-99.99,,,-99.99,,2013-04-05 00:52:00,
2013-04-04 18:02:00,51.0,50.0,29.60,SSW,195,2.0,-999.0,98,-99.99,,,-99.99,,2013-04-05 01:02:00,
2013-04-04 18:12:00,51.0,50.0,29.60,SSW,195,2.0,-999.0,98,-99.99,,,-99.99,,2013-04-05 01:12:00,
2013-04-04 18:22:00,51.0,50.0,29.60,WSW,254,6.0,-999.0,98,-99.99,,,-99.99,,2013-04-05 01:22:00,
2013-04-04 18:32:00,52.0,51.0,29.60,SW,236,9.0,-999.0,97,-99.99,,,-99.99,,2013-04-05 01:32:00,
2013-04-04 18:42:00,52.0,51.0,29.60,SW,236,9.0,-999.0,97,-99.99,,,-99.99,,2013-04-05 01:42:00,
2013-04-04 19:02:00,52.0,51.0,29.61,SSW,195,10.0,-999.0,97,-99.99,,,-99.99,,2013-04-05 02:02:00,
2013-04-04 19:11:00,52.0,51.0,29.61,SSW,195,10.0,-999.0,97,-99.99,,,-99.99,,2013-04-05 02:11:00,
2013-04-04 19:22:00,52.0,51.0,29.61,SSW,195,10.0,-999.0,97,-99.99,,,-99.99,,2013-04-05 02:22:00,
2013-04-04 19:32:00,52.0,51.0,29.62,WSW,240,10.0,-999.0,97,-99.99,,,-99.99,,2013-04-05 02:32:00,
2013-04-04 19:42:00,52.0,51.0,29.62,WSW,240,10.0,-999.0,97,-99.99,,,-99.99,,2013-04-05 02:42:00,
2013-04-04 19:52:00,52.0,51.0,29.62,SSW,200,10.0,-999.0,96,-99.99,,,-99.99,,2013-04-05 02:52:00,
2013-04-04 20:02:00,52.0,51.0,29.63,SW,236,8.0,-999.0,96,-99.99,,,-99.99,,2013-04-05 03:02:00,
2013-04-04 20:12:00,52.0,51.0,29.63,SW,236,8.0,-999.0,96,-99.99,,,-99.99,,2013-04-05 03:12:00,
2013-04-04 20:22:00,52.0,51.0,29.64,WSW,252,8.0,-999.0,95,-99.99,,,-99.99,,2013-04-05 03:22:00,
2013-04-04 20:32:00,52.0,51.0,29.63,SW,227,9.0,-999.0,96,-99.99,,,-99.99,,2013-04-05 03:32:00,
2013-04-04 20:42:00,52.0,51.0,29.63,SW,227,9.0,-999.0,96,-99.99,,,-99.99,,2013-04-05 03:42:00,
2013-04-04 20:53:00,52.0,51.0,29.64,South,184,12.0,-999.0,96,-99.99,,,-99.99,,2013-04-05 03:53:00,
2013-04-04 21:02:00,51.0,50.0,29.64,SW,230,12.0,-999.0,96,-99.99,,,-99.99,,2013-04-05 04:02:00,
2013-04-04 21:12:00,51.0,50.0,29.64,SW,230,12.0,-999.0,96,-99.99,,,-99.99,,2013-04-05 04:12:00,
2013-04-04 21:22:00,51.0,50.0,29.65,SW,223,10.0,-999.0,96,-99.99,,,-99.99,,2013-04-05 04:22:00,
2013-04-04 21:32:00,51.0,50.0,29.65,SSW,212,6.0,-999.0,96,-99.99,,,-99.99,,2013-04-05 04:32:00,
2013-04-04 21:42:00,51.0,50.0,29.65,SSW,212,6.0,-999.0,96,-99.99,,,-99.99,,2013-04-05 04:42:00,
2013-04-04 21:52:00,51.0,50.0,29.65,WSW,238,7.0,-999.0,96,-99.99,,,-99.99,,2013-04-05 04:52:00,
2013-04-04 22:02:00,51.0,50.0,29.66,SSE,167,6.0,-999.0,96,-99.99,,,-99.99,,2013-04-05 05:02:00,
2013-04-04 22:12:00,51.0,50.0,29.66,SSE,167,6.0,-999.0,96,-99.99,,,-99.99,,2013-04-05 05:12:00,
2013-04-04 22:22:00,51.0,50.0,29.66,SW,234,8.0,-999.0,96,-99.99,,,-99.99,,2013-04-05 05:22:00,
2013-04-04 22:31:00,51.0,50.0,29.66,SSW,193,8.0,-999.0,95,-99.99,,,-99.99,,2013-04-05 05:31:00,
2013-04-04 22:42:00,51.0,50.0,29.66,SSW,193,8.0,-999.0,95,-99.99,,,-99.99,,2013-04-05 05:42:00,
2013-04-04 22:52:00,51.0,50.0,29.66,SW,219,9.0,-999.0,96,-99.99,,,-99.99,,2013-04-05 05:52:00,
2013-04-04 23:02:00,51.0,50.0,29.66,SW,219,9.0,-999.0,96,-99.99,,,-99.99,,2013-04-05 06:02:00,
2013-04-04 23:12:00,51.0,50.0,29.66,SW,219,9.0,-999.0,96,-99.99,,,-99.99,,2013-04-05 06:12:00,
2013-04-04 23:22:00,51.0,50.0,29.66,WSW,243,9.0,-999.0,96,-99.99,,,-99.99,,2013-04-05 06:22:00,
2013-04-04 23:32:00,51.0,50.0,29.65,SSW,202,9.0,-999.0,96,-99.99,,,-99.99,,2013-04-05 06:32:00,
2013-04-04 23:42:00,51.0,50.0,29.65,SSW,202,9.0,-999.0,96,-99.99,,,-99.99,,2013-04-05 06:42:00,
2013-04-04 23:52:00,51.0,50.0,29.65,WSW,248,10.0,-999.0,96,-99.99,,,-99.99,,2013-04-05 06:52:00,